Theta_e
324 322 315 304 294 289 286 288 293 295 297 299 301 301 311 315 320 314 346 349 353 355 361 362 363 364 363 361 361 361 361 362 362 363 362 361 360 361 361 361 362 362 360 359 357 355 354 354 353
320 319 309 297 287 283 284 289 290 293 298 300 301 299 299 303 321 335 344 352 354 356 360 359 363 363 362 361 360 360 361 361 361 361 360 360 360 360 361 362 362 361 358 358 356 354 353 353 353
312 317 302 294 284 284 284 288 291 297 300 300 299 302 303 317 332 342 349 354 355 355 358 359 362 362 362 361 360 360 360 361 361 361 360 361 360 360 361 362 362 361 358 357 356 354 353 352 351
307 306 301 292 287 288 287 290 295 298 300 301 300 299 305 343 345 346 354 355 354 356 358 361 360 362 360 360 360 360 360 360 361 360 360 360 360 360 360 361 361 360 357 356 354 354 352 351 350
303 299 290 287 290 291 293 295 296 295 296 297 299 299 301 343 349 352 353 354 353 355 357 360 360 361 361 360 360 359 359 359 360 360 360 360 360 360 360 361 360 360 359 355 353 352 352 352 351
297 295 287 284 288 294 296 296 296 294 295 298 298 299 303 333 346 350 353 351 355 355 357 358 360 361 360 359 360 359 359 359 359 359 359 359 360 360 361 361 361 360 358 355 352 352 352 350 349
293 290 285 285 288 290 295 295 293 293 295 296 299 298 301 333 333 351 351 351 354 356 356 357 356 359 360 359 358 359 358 358 357 357 357 358 359 360 360 360 359 358 356 355 354 352 351 349 348
291 288 283 285 285 286 294 295 293 294 296 302 303 296 297 333 330 330 335 348 354 354 354 354 355 356 356 355 358 358 359 358 357 357 357 357 358 358 358 355 357 357 355 354 353 351 350 348 347
290 284 280 284 284 288 293 290 296 299 298 298 300 301 306 334 332 326 327 331 348 351 352 353 352 354 353 353 355 358 359 358 358 357 357 355 352 353 355 354 357 356 354 353 351 350 349 348 348
287 282 284 288 289 288 291 289 293 294 295 295 299 302 306 321 322 324 322 323 326 331 349 351 351 349 349 351 351 352 353 355 353 353 353 349 350 349 352 354 356 355 353 352 351 350 349 345 340
286 285 288 291 292 291 292 292 293 292 290 294 295 298 301 316 319 318 322 323 323 328 344 350 350 350 348 347 348 348 351 352 353 353 351 347 347 349 348 347 352 349 352 346 346 343 341 339 339
288 293 291 294 295 293 292 293 293 292 294 298 299 300 300 308 311 317 317 320 324 328 339 350 350 348 348 348 346 346 347 347 347 349 348 346 344 343 342 342 344 343 342 340 339 337 338 339 340
288 290 294 295 295 293 294 293 293 294 298 299 299 300 300 300 305 313 320 322 323 329 339 349 348 347 347 346 345 345 345 345 346 346 346 344 341 340 340 339 340 341 338 338 336 337 337 337 338
293 293 294 294 294 293 293 294 293 296 299 298 298 297 298 299 301 312 314 318 321 328 337 345 348 347 347 345 345 344 344 344 344 345 345 342 340 339 339 338 339 339 338 336 337 337 339 339 342
294 291 291 291 291 292 292 291 291 297 297 296 297 298 298 299 300 304 313 316 318 325 336 345 346 348 346 346 345 344 344 344 344 344 343 342 340 338 339 340 339 338 338 337 337 336 338 340 342
291 287 284 291 294 295 291 286 295 301 296 299 298 298 299 298 299 301 305 307 314 329 338 346 349 347 346 346 344 343 343 342 341 341 341 341 341 340 339 340 340 340 338 337 337 338 339 338 337
287 284 285 289 294 294 291 290 296 301 300 297 296 297 298 298 298 299 302 304 323 329 335 342 345 343 346 345 344 342 340 339 338 340 339 340 341 343 340 339 339 339 338 340 342 336 337 334 335
285 284 287 287 292 294 292 292 297 298 297 298 298 297 296 297 298 299 301 304 329 336 334 339 344 339 341 344 341 338 337 336 336 338 337 338 339 344 341 340 338 342 340 337 336 333 331 332 329
290 287 287 291 294 291 292 292 295 297 296 295 296 296 296 296 300 300 302 303 329 334 336 338 342 346 344 338 336 334 333 335 335 337 339 337 338 343 339 339 342 340 337 334 333 329 328 328 328
289 287 286 291 293 291 290 290 295 297 296 297 298 297 298 296 298 301 301 305 332 332 336 337 341 341 340 339 338 337 336 336 336 337 339 338 338 342 342 343 340 337 333 330 331 331 327 324 324
289 287 287 287 291 292 290 289 293 296 297 298 298 299 299 298 298 299 301 304 331 332 333 337 339 336 338 338 336 334 335 335 334 337 337 338 341 344 343 341 338 334 334 330 331 331 329 322 319
285 292 292 291 288 283 291 282 290 292 294 295 297 296 299 300 299 299 300 307 327 333 335 336 337 336 337 336 335 333 331 330 333 335 338 340 344 343 341 338 336 333 332 330 330 329 329 323 318
289 296 294 290 286 283 285 282 287 290 289 291 294 297 298 300 299 298 299 303 322 330 335 335 336 337 336 337 336 333 331 332 335 337 339 341 341 339 337 335 334 331 329 328 326 324 323 321 319
295 289 288 285 283 278 283 283 283 286 290 292 295 297 299 299 299 298 299 300 314 324 332 335 334 337 336 335 338 336 332 335 337 339 339 338 337 334 333 333 331 328 326 322 319 318 317 314 313
289 284 279 270 277 275 285 281 286 291 294 295 294 296 297 298 298 299 298 298 302 320 328 334 335 334 337 333 336 339 336 339 339 339 337 334 333 331 330 329 325 323 320 318 317 316 316 315 314
286 287 280 268 269 274 283 277 283 293 297 297 297 297 298 298 296 298 299 299 299 313 324 330 333 333 336 333 334 337 339 340 340 339 337 335 334 332 330 326 323 320 318 317 317 316 315 315 313
287 283 289 283 279 278 280 283 289 292 293 294 295 297 297 297 298 297 299 300 299 305 318 326 331 333 336 333 333 337 338 340 340 339 338 335 333 329 326 323 320 318 317 317 316 314 313 312 312
290 292 281 285 274 273 278 279 282 287 289 292 294 293 295 297 297 299 299 300 300 303 315 323 327 331 333 334 334 337 339 340 338 337 334 331 329 328 324 321 319 317 316 315 314 312 313 310 308
287 285 287 286 282 277 276 278 287 288 290 290 293 294 295 297 298 299 300 303 301 301 310 319 324 328 332 334 335 338 338 338 336 334 330 329 327 325 322 319 318 316 316 314 313 312 309 306 305
290 288 287 282 280 283 282 281 293 294 291 293 295 297 298 298 297 299 302 305 310 301 302 318 322 327 332 334 337 339 336 334 333 330 329 328 325 324 320 318 317 316 313 314 313 309 306 303 301
Wind_Speed
6 5 1 5 5 6 3 6 1 4 6 1 6 4 6 5 6 9 5 13 13 16 17 20 22 20 20 22 21 20 19 20 21 21 21 21 21 21 19 18 16 15 15 13 12 12 11 10 11
3 2 4 3 6 2 6 2 3 2 6 9 7 3 2 8 7 10 2 6 11 15 16 18 22 20 21 21 21 20 19 19 20 21 22 21 21 20 19 17 16 15 15 14 13 12 11 11 10
1 2 5 5 4 7 5 2 3 5 8 6 8 1 4 7 6 5 2 12 11 12 13 15 21 20 22 22 21 20 20 18 18 19 21 22 21 20 18 16 16 15 14 13 12 11 11 10 9
2 5 5 5 8 6 4 3 3 6 7 6 5 6 6 12 16 9 5 14 13 10 11 17 20 16 19 22 22 20 20 19 18 18 19 21 20 19 16 15 15 14 13 12 11 11 9 9 7
5 3 4 1 5 4 3 3 1 4 3 4 7 9 4 5 13 11 4 6 16 10 10 15 20 16 17 20 20 21 20 19 18 18 18 18 19 18 16 14 14 12 12 10 9 9 8 9 7
5 4 3 4 4 4 5 2 2 3 3 7 8 9 3 15 10 10 8 6 5 11 10 11 17 17 17 18 19 19 20 19 19 17 18 16 16 16 15 13 13 12 11 9 7 7 6 8 7
7 5 4 3 3 4 3 4 3 3 5 3 4 7 6 14 17 13 12 10 6 7 11 8 9 11 16 17 18 18 18 19 18 17 16 15 14 13 13 12 11 11 10 8 5 4 6 7 6
6 5 2 2 1 5 4 7 3 4 5 5 3 4 7 3 11 12 13 8 8 5 7 8 10 9 8 9 16 17 17 16 17 16 14 14 12 11 11 11 10 10 9 8 5 3 5 6 5
4 6 0 3 2 5 5 5 4 3 6 3 5 2 3 4 2 11 10 8 4 4 4 4 7 7 8 6 10 14 18 15 14 14 14 10 4 5 8 8 9 9 8 7 5 3 3 4 3
6 4 6 5 3 5 7 4 7 4 6 4 6 6 3 2 3 7 5 5 2 5 1 4 5 10 5 8 8 5 8 7 5 6 6 4 4 4 5 7 8 7 6 6 4 2 1 5 1
0 4 3 5 4 1 5 7 3 4 5 9 7 5 6 2 3 4 6 6 3 3 1 6 6 7 6 7 8 7 4 5 5 7 8 4 4 3 2 2 2 2 4 2 1 1 2 3 1
1 7 4 6 4 5 4 4 8 5 9 8 7 5 4 4 5 6 7 8 9 8 6 7 9 8 10 6 7 7 8 8 8 9 10 3 4 3 3 2 2 2 1 2 2 1 1 1 2
2 2 5 8 10 7 6 9 8 9 11 10 10 7 6 8 8 6 5 6 7 6 7 10 10 10 9 11 8 7 8 7 8 8 10 4 3 3 3 3 2 2 2 2 2 2 1 1 2
4 6 8 8 12 6 7 8 7 10 8 8 8 10 10 9 10 5 6 8 9 9 8 11 13 12 11 11 11 7 7 7 7 7 9 7 5 4 3 3 2 2 1 1 2 3 2 1 2
4 7 7 3 2 6 3 7 6 9 6 8 9 8 9 11 9 11 12 10 10 10 14 13 13 13 12 11 10 6 7 7 7 7 8 8 7 5 4 3 3 2 2 3 3 3 1 2 4
6 3 6 6 5 5 0 10 8 16 5 15 10 7 7 9 9 10 9 10 8 7 14 17 14 10 9 10 9 7 7 7 7 6 7 8 7 6 5 4 2 3 3 3 3 1 3 4 5
4 8 6 9 5 4 2 12 11 16 20 12 9 8 7 9 7 10 10 10 9 9 11 13 18 17 9 9 8 7 9 8 7 6 7 9 8 7 5 4 3 4 3 2 3 3 3 4 5
12 8 9 12 4 8 15 17 20 7 10 14 11 9 6 7 12 8 10 11 8 6 8 7 9 14 21 11 6 4 5 5 6 6 7 9 7 7 4 3 5 4 4 3 3 5 4 4 6
10 9 15 14 13 6 16 17 25 9 9 12 10 10 8 9 9 7 8 9 7 5 6 14 13 17 12 10 11 8 9 6 6 7 10 10 8 7 6 4 6 5 5 4 5 5 6 3 1
12 13 17 16 13 7 12 18 26 15 12 13 15 12 10 7 6 7 8 6 7 8 10 7 16 15 14 12 11 8 9 7 7 7 8 11 10 9 7 7 6 6 5 6 4 3 3 3 2
14 10 15 14 4 6 7 23 23 16 16 14 13 13 9 10 10 9 9 10 9 10 12 13 13 16 16 15 8 4 5 3 3 4 4 6 11 11 10 8 8 6 5 6 4 3 4 3 2
10 4 6 6 4 7 4 18 20 9 17 14 11 10 13 12 7 9 10 10 10 14 12 13 11 12 13 13 12 12 9 8 6 9 7 8 11 11 8 10 9 8 5 6 3 3 2 4 5
7 4 6 7 11 6 7 8 10 3 8 10 10 14 12 10 8 10 11 12 13 13 12 14 13 12 12 13 12 10 10 6 3 6 9 8 11 13 11 10 10 9 6 5 6 4 4 2 4
2 4 13 5 2 7 12 13 8 5 7 6 7 9 9 8 8 9 11 10 9 7 11 11 13 13 12 10 11 13 11 8 8 8 7 8 7 10 10 9 9 9 7 6 6 5 5 6 6
6 6 4 6 3 7 2 5 13 10 12 9 10 8 6 7 7 8 9 9 9 9 8 11 14 16 14 14 12 12 13 11 13 14 11 12 9 10 9 11 11 9 8 8 7 7 8 7 6
7 6 3 6 4 5 6 8 8 10 13 9 7 6 3 7 6 9 11 11 12 13 11 10 14 13 15 13 16 10 11 9 9 12 11 9 9 10 10 11 12 11 11 10 9 8 8 8 8
1 4 1 5 7 8 6 6 10 14 13 10 9 5 6 7 7 5 7 7 10 11 13 13 14 14 17 19 15 11 11 12 12 12 10 9 10 9 11 13 14 12 11 12 10 9 9 10 8
8 4 1 3 4 7 5 5 11 7 9 6 5 7 7 5 6 6 4 7 7 10 13 12 12 17 17 18 16 13 13 13 13 13 13 13 13 13 12 14 13 12 11 13 13 10 9 11 7
1 3 5 3 4 4 5 6 8 8 8 5 6 6 6 7 7 7 6 5 7 8 11 12 13 13 15 15 16 16 13 14 14 13 14 15 16 15 14 15 15 14 12 12 13 11 11 12 10
6 6 5 4 3 5 5 10 8 18 3 3 4 7 6 4 6 8 6 9 5 7 9 14 12 14 16 17 16 16 15 16 15 14 16 17 17 14 16 16 16 14 12 13 14 12 11 12 11
Wind_Direction
333 323 99 43 63 64 269 261 257 318 360 159 250 210 214 237 179 218 316 192 129 143 144 148 155 153 143 136 135 134 133 134 135 134 133 135 139 140 140 140 141 141 141 139 136 133 130 128 126
330 43 45 80 93 82 253 280 113 63 270 296 284 267 252 260 239 297 22 85 140 142 145 150 157 150 142 138 137 137 137 138 138 137 138 139 141 142 142 144 143 144 144 142 140 138 134 133 130
323 41 86 99 130 200 204 174 90 281 305 327 337 253 306 283 329 286 143 123 126 138 142 152 157 150 143 140 140 141 139 140 139 141 142 143 144 145 146 145 142 145 146 143 141 139 135 134 132
77 15 35 103 216 258 192 109 282 328 359 28 306 303 327 20 340 326 135 132 128 134 137 152 156 150 144 141 142 143 142 143 145 146 147 146 146 144 145 144 141 143 145 146 144 140 138 127 121
36 55 74 124 260 266 234 266 273 30 25 312 329 298 285 22 339 6 46 142 133 135 136 149 156 149 147 144 144 144 144 145 148 150 150 149 147 145 146 144 140 138 138 143 146 142 133 113 103
46 92 80 228 244 276 302 290 352 42 339 304 351 305 281 355 15 29 28 23 87 122 134 143 156 153 148 146 147 148 148 147 148 151 150 152 149 148 145 144 138 135 139 143 153 144 125 102 96
107 85 206 220 252 302 251 339 26 4 292 306 284 297 299 24 10 40 42 34 44 111 133 139 154 156 148 149 151 151 151 150 148 150 153 151 152 148 143 140 139 138 137 142 153 142 111 98 101
103 89 72 279 279 272 270 350 274 268 272 294 336 308 317 292 56 28 33 23 48 98 136 149 152 147 141 152 154 152 153 153 148 149 152 150 152 148 145 141 143 141 143 147 147 140 110 106 106
124 62 205 258 279 253 291 325 286 283 277 309 259 237 267 204 71 59 18 2 14 102 139 152 164 139 140 142 158 155 154 151 150 149 149 142 140 145 145 146 148 152 156 152 156 155 122 94 76
78 105 227 222 263 293 313 291 265 259 259 253 288 295 311 64 42 95 98 359 23 15 169 159 180 176 157 153 155 138 155 147 138 140 143 127 131 136 144 158 160 160 161 158 149 174 109 78 73
252 189 211 266 259 324 276 307 247 232 287 227 225 255 290 161 128 143 178 170 215 183 265 157 174 174 173 165 156 161 143 145 146 158 167 140 143 150 151 137 127 147 168 103 97 53 51 91 162
296 251 225 287 288 321 258 275 300 223 236 244 232 243 269 263 242 196 201 194 197 180 182 179 168 176 185 176 168 162 166 167 171 177 181 185 156 157 162 147 146 164 137 147 128 83 64 111 225
179 275 291 264 283 255 244 233 229 265 264 267 266 250 247 271 255 244 214 187 196 180 153 174 170 173 190 189 172 169 169 169 169 173 184 173 151 169 148 163 164 176 172 141 119 114 153 239 284
227 260 263 262 258 256 245 256 145 252 245 259 264 254 255 243 246 235 226 219 208 181 174 180 170 180 190 194 188 180 171 168 163 168 187 171 159 169 178 157 194 185 200 156 158 176 191 290 312
277 303 335 272 262 274 208 301 220 268 278 262 279 274 262 242 251 231 229 217 199 213 170 168 177 176 183 187 192 189 183 171 175 176 173 173 162 169 156 172 192 160 202 196 191 201 113 49 68
343 49 352 282 313 284 192 281 285 292 330 310 293 292 282 272 254 251 233 238 221 183 177 163 163 161 173 195 194 185 187 178 179 169 164 170 164 162 167 185 188 174 183 192 204 171 102 104 90
340 275 262 298 181 282 167 287 279 315 302 282 278 279 280 297 275 259 260 241 223 208 160 172 160 174 167 190 195 202 193 183 178 169 167 169 173 175 171 179 161 161 181 181 153 92 106 101 78
278 266 258 270 267 286 286 276 275 261 266 271 271 272 251 275 277 259 250 256 236 192 174 164 177 164 175 173 174 199 196 188 166 175 174 169 175 173 162 169 154 137 145 146 118 106 71 97 100
264 255 261 271 271 270 273 280 279 276 245 265 262 257 248 221 269 261 255 256 258 177 204 154 186 190 176 173 176 195 193 195 187 184 175 174 173 156 160 156 129 148 169 147 126 115 107 82 107
263 261 264 270 269 219 271 274 278 281 253 241 257 245 242 192 220 245 255 223 233 215 204 212 175 180 183 188 188 204 180 192 193 187 184 170 166 142 150 154 148 151 126 129 137 127 122 85 10
276 257 270 263 285 249 279 276 285 283 259 257 239 238 239 214 198 228 222 219 202 214 200 215 193 180 181 184 177 188 106 95 133 170 171 167 147 145 156 157 141 147 144 151 145 122 123 144 47
286 298 308 290 330 277 130 287 286 264 261 244 246 232 235 234 195 214 214 212 205 213 200 201 197 197 184 174 181 172 183 182 182 188 174 159 152 139 157 143 143 150 128 134 123 143 142 129 138
258 307 275 269 270 286 220 261 273 163 272 256 233 240 241 239 204 205 221 216 209 210 187 196 182 188 188 187 173 176 187 181 152 164 146 162 149 139 148 148 141 126 118 117 124 120 112 106 118
358 336 316 313 208 249 211 203 271 224 227 252 238 235 247 238 220 207 220 225 223 224 191 185 181 186 180 188 185 178 175 159 140 136 152 155 161 137 128 127 121 112 111 118 101 88 95 89 84
57 0 299 335 212 237 293 280 257 281 270 250 258 260 252 253 229 215 199 226 230 215 231 179 190 181 178 181 197 185 174 165 152 153 158 162 162 122 133 133 129 110 119 105 98 101 90 82 94
283 181 218 250 243 267 324 253 260 251 269 290 275 261 294 321 264 211 207 202 213 217 207 200 186 212 178 179 188 194 167 164 155 157 158 160 145 136 143 127 113 117 118 104 101 96 89 91 82
183 200 208 264 233 266 228 298 290 260 273 278 270 282 318 324 324 274 252 222 217 222 209 203 187 195 191 183 184 177 174 160 161 148 144 144 137 138 134 124 119 117 114 107 109 100 96 86 85
161 166 256 206 269 261 261 242 238 279 284 299 337 344 314 316 357 18 329 284 261 239 225 198 202 183 195 183 178 179 173 160 151 145 144 141 130 130 136 120 117 114 107 111 106 102 97 94 79
127 248 225 251 225 269 288 241 222 239 257 285 299 314 320 342 336 332 313 282 259 241 240 216 194 184 175 185 179 169 163 148 146 144 138 138 135 140 138 125 117 118 118 111 104 99 103 93 91
229 240 204 231 242 240 257 247 264 270 257 174 262 287 315 326 315 316 316 312 321 263 241 228 204 176 176 183 173 165 152 144 144 143 144 145 141 139 140 118 122 118 122 114 107 107 101 100 86